User: anonymous   Login
Location: Unspecified
(0.0000°N, 0.0000°E)
Time: 23:53:23
(UTC+00:00)
Language:

STARLINK-4385 - Orbit

View from above orbital plane
View from above orbital plane
View from above satellite
View from above satellite

Ground track
Ground track

The orbit is defined by the following mean orbital elements,

1 53198U          26145.61718225 +.00000000 +00000-0 +59854-4 0 00004
2 53198  97.4446 205.6113 0001730 182.5793 177.5425 15.05663824    07
Epoch (UTC): 25 May 2026 14:48:44
Eccentricity: 0.0001730
inclination: 97.4446°
perigee height: 548 km
apogee height: 551 km
right ascension of ascending node: 205.6113°
argument of perigee: 182.5793°
revolutions per day: 15.05663824
mean anomaly at epoch: 177.5425°

The dashed part of the orbit path shows where the satellite is in the earth's shadow,  

DLR